Regional Weather Roundup
Issued by NWS New Orleans/Baton Rouge, LA

Home | Current Version | Previous Version | Text Only | Print | Product List | Glossary Off
Versions: 1 2 3 4 5 6 7 8 9 10 11 12 13 14 15 16 17 18 19 20 21 22 23 24 25 26 27 28 29 30 31 32 33 34 35 36 37 38 39 40 41 42 43 44 45 46 47 48 49 50

070
ASUS44 KLIX 160701
RWRLIX
NEW ORLEANS REGIONAL WEATHER ROUNDUP
NATIONAL WEATHER SERVICE NEW ORLEANS LA
200 AM CDT TUE SEP 16 2014

NOTE: "FAIR" INDICATES FEW OR NO CLOUDS BELOW 12,000 FEET WITH NO
      SIGNIFICANT WEATHER AND/OR OBSTRUCTIONS TO VISIBILITY.
      SKY/WX - SKY CONDITION AND SIGNIFICANT WEATHER.
      TMP - AIR TEMPERATURE.     DP    - DEWPOINT TEMPERATURE.
      RH  - RELATIVE HUMIDITY.   PRES  - PRESSURE.
      HI  - HEAT INDEX.          WCI   - WIND CHILL INDEX.

*  THESE STATIONS ARE NOT NWS OR FAA STATIONS AND ARE NOT UNDER
   NWS QUALITY CONTROL.

LAZ038-040-048-061>063-065>067-069-160800-
SOUTHEAST LOUISIANA

CITY           SKY/WX    TMP DP  RH WIND       PRES   REMARKS
N.O. AUDUBON     N/A     79  78  97 MISG        N/A
N.O. INTL ARPT MOCLDY    77  75  93 W3        30.07F
N.O. LAKEFRONT PTCLDY    82  76  81 W9        30.07F
N.O. DOWNTOWN*   N/A     81  72  74 CALM      30.08S
SLIDELL        PTCLDY    75  73  93 CALM      30.07S
BATON ROUGE    PTCLDY    75  73  93 E3        30.08S
BOOTHVILLE     CLEAR     82  76  81 W5        30.07S
BELLE CHASSE   PTCLDY    76  73  91 SW3       30.07S
BOGALUSA*        N/A     76  72  88 CALM      30.09S FOG
GALLIANO*      NOT AVBL
NEW ROADS*       N/A     74  74  98 CALM      30.08S
GONZALES*        N/A     75  75 100 CALM      30.08S FOG
HAMMOND*       NOT AVBL
HOUMA*         PTCLDY    75  73  91 CALM      30.07S
PORT FOURCHON* CLOUDY    81  73  78 VRB5      30.10S

$$

MSZ070-080>082-160800-
SOUTHERN MISSISSIPPI

CITY           SKY/WX    TMP DP  RH WIND       PRES   REMARKS
MCCOMB         MOCLDY    77  74  90 CALM      30.09F
GULFPORT       MOCLDY    77  75  93 CALM      30.06F
BILOXI         MOCLDY    78  76  93 NW1       30.06F
PASCAGOULA     PTCLDY    74  73  97 CALM      30.06F

$$

COASTAL OBSERVATIONS
LAKE AND NEARSHORE STATIONS

STATION/POSITION TIME  TEMP    WIND        PRES    WAVE
                       AIR SEA DIR/SP/G            HT/PER
                 (UTC) (F)     (DEG/KT/KT) (MB)    (FT/S)
PASCAGOULA       0600   81                   N/A
WAVELAND YACHT   0600   77                   N/A
GRAND ISLE       0600   83 86                N/A
SOUTHWEST PASS   0600   84 91                N/A
NEW CANAL        0600   81 82                N/A
SHELL BEACH      0600   80 80                N/A

OFFSHORE STATIONS

STATION/POSITION TIME  TEMP    WIND        PRES    WAVE
                       AIR SEA DIR/SP/G            HT/PER
                 (UTC) (F)     (DEG/KT/KT) (MB)    (FT/S)
64 S DAUPHIN ISL 0551   83 86  230/  6/ 10 1019.0    3/ 8

$$




USA.gov is the U.S. government's official web portal to all federal, state and local government web resources and services.